Flag for U.S.A. Weather past 2 weeks in Fremont, California, U.S.A.

Now
59 °F

Overcast.


Feels Like: 59 °F
Forecast: 57 / 64 °F
Wind: No wind

Location: Moffett Field

Current Time: Dec 21, 2014 at 2:50:04 AM

Latest Report: Dec 21, 2014 at 1:56 AM


Visibility: 10 mi

Pressure: 30.28 "Hg

Humidity: 81%

Dew point: 53 °F

Location of FremontLocation

Historic Weather in Fremont — Graph

°F

Fremont temperature yesterday

Maximum temperature yesterday: 61 °F (at 11:56 AM)
Minimum temperature yesterday: 55 °F (at 3:56 AM)
Average temperature yesterday: 58 °F

Past Weeks' High & Low Weather Summary

 TemperatureHumidityPressure
High69 °F (Dec 6, 1:56 PM)100% (Dec 6, 8:56 AM)30.28 "Hg (Dec 6, 8:56 AM)
Low43 °F (Dec 13, 6:56 AM)53% (Dec 8, 2:56 PM)29.57 "Hg (Dec 11, 7:56 AM)
Average56 °F85%30.05 "Hg
* Reported Dec 6 1:03 AM — Dec 21 1:56 AM, Fremont, Weather by CustomWeather, © 2014

Note: Actual official high and low records may vary slightly from our data, if they occured in-between our weather recording intervals... More about our weather records

Advertising

Fremont weather history for previous 24 hours

 ConditionsComfort  
Time TempWeatherWind HumidityBarometerVisibility
1:56 AM
Dec 21
59 °FOvercast.No wind81%30.28 "Hg10 mi
12:56 AM59 °FOvercast.3 mph81%30.27 "Hg10 mi
11:56 PM
Dec 20
60 °FMostly cloudy.5 mph72%30.27 "Hg10 mi
10:56 PM60 °FOvercast.6 mph75%30.27 "Hg10 mi
9:56 PM59 °FOvercast.No wind81%30.27 "Hg10 mi
8:56 PM60 °FOvercast.No wind75%30.26 "Hg10 mi
7:56 PM60 °FOvercast.No wind75%30.25 "Hg10 mi
6:56 PM60 °FOvercast.No wind72%30.24 "Hg10 mi
5:56 PM60 °FOvercast.No wind72%30.23 "Hg10 mi
4:56 PM59 °FMostly cloudy.No wind78%30.23 "Hg10 mi
3:56 PM61 °FMostly cloudy.No wind75%30.22 "Hg10 mi
2:56 PM61 °FOvercast.5 mph75%30.21 "Hg10 mi
1:56 PM61 °FOvercast.3 mph75%30.21 "Hg10 mi
12:56 PM61 °FOvercast.3 mph81%30.21 "Hg10 mi
11:56 AM61 °FOvercast.No wind81%30.22 "Hg10 mi
10:56 AM59 °FBroken clouds.No wind87%30.23 "Hg10 mi
9:56 AM58 °FMostly cloudy.No wind93%30.24 "Hg10 mi
8:56 AM57 °FOvercast.No wind96%30.22 "Hg7 mi
7:56 AM56 °FFog.No wind93%30.18 "Hg6 mi
6:56 AM55 °FPartly cloudy.No wind96%30.17 "Hg8 mi
6:04 AM55 °FFog.No wind94%30.16 "Hg3 mi
5:56 AM55 °FFog.No wind96%30.16 "Hg4 mi
4:56 AM56 °FFog.No wind93%30.15 "Hg6 mi
3:56 AM55 °FFog.3 mph96%30.15 "Hg5 mi
2:56 AM56 °FMostly cloudy.No wind93%30.14 "Hg10 mi
Weather by CustomWeather, © 2014

See weather overviewHow to use our weather pages